AEROCUBE 5C

Satellite information

Favourite Embed

Satellite Type and Status

PAYLOADIN ORBIT

Key statistics

Satellite AEROCUBE 5C at a glance.

Uptime

3621

Days in orbit

Revolutions

≈ 14.9

Per day

Orbit

LEO

Low Earth Orbit

Inclination

64.8

Latest

Satellite identification and parameters

Extended collection of information and parameters for AEROCUBE 5C.

Object identification

Identified? True

Debris? False

Object name: AEROCUBE 5C

International designator: 2015-058B

Object number (NORAD): 40965

Object ID (CCSDS): 40965

Country: UNITED STATES OF AMERICA (US)

Current information (Y/N): Y

Orbital parameters

Period: 96.704 minutes

Inclination: 64.7677 deg

SMA: 6978.928 km

Apoapsis: 706.928 km

Periapsis: 494.659 km

RAAN: 65.4869 deg

Eccentricy: 0.01520781

Argument of periapsis: 171.3547 deg

Mean anomaly: 189.0242 deg

Mean motion: 14.89085564 rev/day

Mean motion (dot): 0.00007025 rev/day2

B* drag term: 0.00061225108 1/REarth

Two-line elements (TLE)

Creation date: Sept. 6, 2025, 2:09 a.m.

Reference frame: TEME

Reference center: EARTH

Epoch: Sept. 5, 2025, 10:35 p.m. UTC

TLE line 0: 0 AEROCUBE 5C

TLE line 1: 1 40965U 15058B 25248.94113870 .00007025 00000-0 61225-3 0 9990

TLE line 2: 2 40965 64.7677 65.4869 0152078 171.3547 189.0242 14.89085564323297

Live tracking on map

Real-time ground track for satellite AEROCUBE 5C.

In-orbit conjunctions

There are no conjunctions computed for AEROCUBE 5C, at the moment. Check back to stay up to date, as we update our databases every day.

Go to all conjunctions

Associated space launch

Classified payload for the U.S. National Reconnaissance Office.

AEROCUBE 5C was lifted into orbit during the mission ‘Atlas V 401 | NROL-55 (Multipayload mission)’, on board a Atlas V 401 space rocket.

The launch took place on Oct. 8, 2015, 12:49 p.m. from Space Launch Complex 3E.

For more information about the launch, click the button.

Launch to space Atlas V 401 | NROL-55 (Multipayload mission)
Atlas V 401 | NROL-55 (Multipayload mission)

Agency: N/A

Status: Launch Successful

Launch date: Oct. 8, 2015, 12:49 p.m. UTC

Rocket: Atlas V 401

Launch pad: Space Launch Complex 3E

Location: Vandenberg SFB, CA, USA

...

Latest news about this satellite

There are no fresh news available about this satellite. Check back as we update our databases every day.


Newsletter sign-up

Weekly statistics, charts and insights to help you stay on top of the space industry.